Regional Weather Roundup
Issued by NWS State College, PA

Home | Current Version | Previous Version | Text Only | Print | Product List | Glossary Off
Versions: 1 2 3 4 5 6 7 8 9 10 11 12 13 14 15 16 17 18 19 20 21 22 23 24 25 26 27 28 29 30 31 32 33 34 35 36 37 38 39 40 41 42 43 44 45 46 47 48 49 50

000
ASUS41 KCTP 281510
RWRCTP

REGIONAL WEATHER ROUNDUP
NATIONAL WEATHER SERVICE STATE COLLEGE PA
1100 AM EDT THU JUL 28 2016

Note: "fair" indicates few or no clouds below 12,000 feet with no
significant weather and/or obstructions to visibility.

* = STATION THAT DOES NOT REPORT PRECIPITATION /E.G. RAIN...SNOW...ETC/
    THUNDER OR FOG.

PAZ002>004-007>009-013>016-020>023-029>032-281600-
WESTERN PENNSYLVANIA

CITY           SKY/WX    TMP DP  RH WIND       PRES   REMARKS
ERIE           PTSUNNY   82  63  52 CALM      29.92F
MEADVILLE      CLOUDY    77  61  57 E7        29.95F
FRANKLIN*      CLOUDY    77  64  65 E5        29.97S
NEW CASTLE     FAIR      79  69  71 CALM      29.94S
BEAVER COUNTY  PTSUNNY   75  68  78 CALM      29.94S
BUTLER*        CLOUDY    75  70  83 CALM      29.97F
PITTSBURGH INT LGT RAIN  75  71  87 SW3       29.94S
PITTSBURGH     LGT RAIN  75  71  87 S6        29.94S FOG
INDIANA*       CLOUDY    77  70  78 CALM      29.99S
LATROBE        CLOUDY    77  75  94 SW9       29.96F
WASHINGTON CO* CLOUDY    73  70  88 SW5       29.97R
$$

PAZ004>006-010>012-017>019-024>028-033>037-041-042-045-046-049>053-281600-
CENTRAL PENNSYLVANIA

CITY           SKY/WX    TMP DP  RH WIND       PRES   REMARKS
BRADFORD       PTSUNNY   78  61  55 CALM      30.00F
DUBOIS         MOSUNNY   77  62  59 SE6       29.98S
CLEARFIELD     PTSUNNY   77  61  57 CALM      29.98F
JOHNSTOWN      MOSUNNY   74  67  78 SW3       30.00F
ALTOONA        MOSUNNY   79  63  57 CALM      29.97F
STATE COLLEGE  PTSUNNY   73  61  64 CALM      29.97S
WILLIAMSPORT   PTSUNNY   79  61  53 W3        29.92F
SELINSGROVE    PTSUNNY   80  68  66 CALM      29.93F
FT INDIANTOWN  NOT AVBL
CAPITAL CITY   PTSUNNY   83  68  60 CALM      29.91F
HARRISBURG     CLOUDY    83  71  67 CALM      29.91S
YORK           CLOUDY    85  74  69 VRB3      29.91F
$$

PAZ038>040-043-044-047-048-054-055-060>062-067>071-281600-
EASTERN PENNSYLVANIA

CITY           SKY/WX    TMP DP  RH WIND       PRES   REMARKS
SCRANTON       PTSUNNY   84  63  49 W5        29.94F
MOUNT POCONO   MOSUNNY   80  64  58 SE6       30.00F
ALLENTOWN      MOSUNNY   85  68  56 CALM      29.93S
QUAKERTOWN*    PTSUNNY   86  66  51 CALM      29.94S
READING        PTSUNNY   87  66  49 SE3       29.91S
LANCASTER      CLOUDY    83  69  62 E3        29.92S
COATESVILLE    PTSUNNY   84  70  61 SE6       29.95S
POTTSTOWN      CLOUDY    85  67  54 CALM      29.94S
BLUE BELL      MOSUNNY   86  70  58 CALM      29.92S
DOYLESTOWN     PTSUNNY   83  63  50 SE3       29.92S
WILLOW GROVE   NOT AVBL
NORTH PHILA    PTSUNNY   88  71  57 SE6       29.92F
PHILADELPHIA   PTSUNNY   89  66  46 VRB3      29.91F
$$




USA.gov is the U.S. government's official web portal to all federal, state and local government web resources and services.